Wind_Speed
6 6 5 6 8 10 9 6 4 4 5 7 8 9 10 10 4 2 2 5 2 5 8 5 4 3 4 6 9 7 13 11 7 4 3 6 7 13 20 24 22 21 22 21 20 19 18 19 21 22 23 23 22 22 23 24 24 24 24 23 23 24 24 23 21 19 17 17 17 17 17 17 17 16 16 16 13 12 13 14 15 13 13 13 13 13 14 15 15 16 16 16 16 16 14 13 13
6 7 8 9 10 8 5 5 5 4 7 7 9 10 5 3 2 4 1 6 6 7 5 4 5 5 5 5 8 3 11 14 11 9 8 13 13 14 17 19 20 19 20 20 20 18 17 19 21 22 23 23 22 23 24 24 25 24 24 23 23 24 24 23 20 18 17 17 18 18 17 17 17 16 17 16 13 12 14 15 14 13 13 13 13 13 13 13 14 14 15 16 16 15 14 13 12
9 11 11 9 9 7 4 4 6 5 7 7 8 5 3 2 5 5 6 9 8 6 3 3 6 5 6 6 4 1 10 11 13 11 7 14 13 14 16 16 19 19 19 19 19 18 17 19 21 22 23 23 23 24 24 24 25 25 24 23 24 25 24 22 19 17 17 18 19 18 17 16 15 15 17 17 13 13 14 15 14 12 13 13 12 12 12 12 12 13 14 14 14 14 14 13 12
9 11 11 9 6 6 5 4 7 7 7 7 6 3 5 3 8 7 7 8 5 5 3 6 4 2 6 5 3 6 10 9 12 11 6 10 14 17 17 16 20 20 19 18 18 18 17 20 22 21 23 23 23 24 24 24 25 25 24 24 24 25 24 21 17 16 17 18 18 17 16 15 14 16 17 16 14 13 14 15 13 12 13 13 12 11 11 11 12 12 12 13 13 14 13 12 11
9 11 13 10 4 4 4 5 6 7 7 7 4 5 7 6 10 6 5 4 3 3 4 5 4 4 2 6 7 4 7 8 12 12 9 14 20 19 18 18 19 19 18 18 18 16 16 21 22 22 23 23 23 23 24 24 24 25 24 24 25 26 23 19 17 17 17 18 18 17 16 16 16 17 17 16 14 14 14 14 13 13 13 12 11 11 10 10 11 11 11 11 12 12 12 12 10
10 12 11 9 6 5 4 6 6 8 10 10 7 5 8 8 10 6 4 4 2 2 5 5 8 3 5 8 9 7 6 6 9 11 13 17 20 19 18 18 17 19 19 19 18 16 17 22 22 23 23 22 23 24 24 23 24 24 24 25 25 24 21 18 18 17 18 18 18 18 17 17 17 18 18 17 16 15 14 13 14 14 13 12 11 10 10 11 11 10 10 10 11 11 11 12 12
11 9 7 7 6 4 5 7 7 8 8 9 8 4 10 8 6 3 5 4 0 2 5 4 7 4 5 8 9 11 11 10 10 13 17 19 19 18 16 17 18 20 20 20 18 17 19 23 23 23 23 22 24 24 24 23 23 23 24 25 24 22 19 17 18 18 19 19 19 18 17 16 17 19 19 17 16 15 14 12 13 14 13 12 10 10 10 10 10 9 9 9 9 10 10 13 15
13 8 3 6 5 5 7 7 8 9 4 4 5 7 8 5 4 2 5 3 3 1 5 4 5 5 5 12 9 9 16 18 17 19 21 21 20 18 16 17 19 20 20 19 18 19 21 23 23 23 23 24 24 24 23 22 22 22 23 23 22 20 18 17 18 18 19 19 17 16 16 16 17 19 19 17 16 15 13 12 13 14 13 12 11 11 10 9 9 8 7 7 8 9 10 15 18
11 7 4 6 6 6 7 8 8 9 7 2 3 8 6 4 4 3 6 5 6 4 7 6 4 4 9 17 11 9 15 19 20 20 21 21 20 17 17 19 20 21 19 18 18 19 21 23 23 23 24 24 24 23 22 22 22 22 22 22 21 19 17 18 18 19 19 18 17 16 15 15 17 19 19 17 17 15 13 12 13 13 13 12 11 10 9 8 7 6 6 6 8 9 10 14 16
7 6 5 5 6 7 7 8 7 10 9 3 7 7 5 4 4 4 5 6 6 5 6 3 4 3 13 17 9 8 12 18 20 19 20 20 18 17 18 20 21 21 19 19 20 19 20 22 23 24 24 24 23 22 22 22 22 23 23 21 19 18 17 18 19 19 19 18 17 16 16 16 16 18 18 17 16 15 12 11 12 12 12 12 11 9 8 7 7 6 6 7 8 10 11 13 15
5 5 6 5 6 7 7 8 8 8 4 6 4 6 5 3 4 5 4 6 8 6 5 2 4 2 14 13 7 9 13 18 19 18 18 18 17 18 19 20 21 21 20 21 21 19 19 21 23 24 23 23 22 22 23 23 23 23 22 20 19 19 19 19 19 19 19 18 18 17 17 16 15 17 17 15 15 14 12 11 12 12 12 11 10 8 7 7 7 7 8 9 10 11 11 13 15
5 6 6 6 6 6 8 8 8 3 7 3 2 8 4 2 1 4 5 7 8 6 4 4 5 5 13 9 6 11 16 18 18 19 18 17 18 19 20 19 21 21 22 22 21 20 19 20 21 22 22 22 22 23 24 24 24 22 21 20 20 21 20 19 18 18 18 18 18 17 17 16 15 16 15 14 14 13 11 11 11 11 10 9 7 6 7 7 7 7 9 10 11 12 12 13 14
6 7 5 7 6 7 9 9 9 4 1 3 6 8 2 2 2 4 7 9 8 7 4 2 2 10 11 8 7 9 15 17 18 19 18 18 19 20 20 20 21 22 23 23 21 22 21 20 19 21 21 21 22 23 24 24 23 21 21 22 22 21 19 18 17 18 18 18 18 18 17 15 15 15 15 14 14 13 11 11 10 8 7 7 6 6 8 8 7 7 9 11 12 12 13 13 14
6 6 6 6 6 8 9 8 8 6 0 8 8 5 1 2 4 4 7 9 10 4 6 5 7 13 10 8 7 6 11 18 19 19 18 18 19 19 20 21 21 21 23 23 23 22 21 21 20 21 21 20 22 23 23 23 22 22 22 22 21 20 18 17 17 18 19 18 18 18 17 15 15 15 15 14 13 13 11 10 9 6 5 6 7 7 9 9 7 8 10 12 12 13 15 17 17
7 5 6 6 7 8 8 8 7 7 2 10 4 4 2 3 3 4 6 6 8 6 7 5 6 6 7 6 6 8 14 20 20 18 18 18 18 18 20 22 21 21 21 22 22 22 21 21 21 22 21 21 22 22 21 22 22 22 22 21 19 18 17 17 18 19 19 19 19 18 16 15 15 15 14 13 13 12 12 11 10 8 6 6 8 8 9 9 8 9 10 12 12 13 18 20 20
6 5 5 5 7 7 7 8 7 6 4 9 2 5 2 3 3 4 4 3 8 4 2 6 12 8 5 6 8 13 18 21 20 19 19 18 18 18 20 22 20 20 21 22 21 20 21 21 22 23 22 22 22 22 21 21 22 22 21 19 17 16 16 17 19 19 18 18 17 17 16 14 15 14 14 14 13 12 12 12 12 11 8 7 9 9 9 9 8 9 10 12 12 13 18 20 19
5 5 6 6 7 8 8 4 2 2 8 8 4 6 3 3 2 3 3 5 9 2 5 14 15 11 9 11 16 20 21 22 21 20 20 19 18 18 18 19 18 18 21 23 22 21 23 22 22 23 22 23 23 23 23 22 22 22 21 18 16 16 16 17 17 17 17 17 16 17 16 14 13 12 13 14 13 12 11 11 12 12 10 8 9 9 9 9 8 9 10 12 12 13 17 18 18
6 5 6 7 7 7 4 7 6 4 8 7 5 5 3 3 4 4 4 8 8 3 7 17 15 12 11 16 20 21 22 21 21 21 20 18 17 16 17 17 17 18 19 22 23 22 24 23 23 23 23 23 24 24 24 24 24 22 21 18 17 17 17 17 17 17 17 16 16 15 15 15 13 12 13 14 13 13 12 11 10 11 10 9 9 10 10 9 9 8 9 11 12 12 15 17 16
6 6 6 8 8 4 7 7 5 6 6 5 3 2 1 3 5 4 8 7 6 4 11 17 12 10 9 15 17 18 20 19 20 19 19 17 16 16 16 17 17 18 18 20 23 23 23 24 24 24 25 25 24 23 23 25 25 23 21 19 19 19 18 18 18 17 16 16 16 14 15 14 13 14 13 13 13 13 12 11 9 9 10 10 9 10 11 10 9 8 8 10 12 12 13 13 13
7 7 6 9 6 6 6 4 5 6 5 5 4 3 2 6 5 3 8 9 9 6 12 14 10 11 9 11 12 14 18 18 18 17 17 17 16 16 16 17 17 18 19 20 23 24 23 24 25 25 27 27 25 22 23 26 25 23 22 21 21 20 19 19 18 18 16 17 16 15 15 14 14 15 13 13 13 13 12 11 9 8 9 10 10 11 12 11 10 9 8 9 13 12 11 9 8
7 7 9 10 5 7 3 3 6 6 6 7 6 5 5 8 5 4 9 9 9 2 13 15 13 14 13 11 9 12 15 16 17 15 16 15 15 15 16 17 17 18 20 19 22 24 23 25 26 26 28 28 25 23 24 26 25 24 24 22 22 22 22 21 20 19 18 18 16 15 16 14 14 15 13 14 13 12 12 10 9 8 9 10 11 12 12 12 12 10 9 11 14 12 11 10 7
6 8 11 14 9 8 3 4 4 4 6 8 8 8 7 6 5 7 10 10 5 10 14 14 16 16 16 14 11 12 12 13 15 15 14 13 12 12 14 15 16 18 19 18 21 23 24 27 27 27 29 29 24 23 24 25 24 23 24 25 25 25 24 22 21 20 19 18 16 16 16 15 16 15 14 14 13 12 11 9 10 8 8 10 11 12 11 12 12 11 10 10 12 10 10 11 10
8 8 10 13 10 9 4 2 2 3 5 8 8 8 7 6 7 9 9 11 4 15 17 13 14 15 16 15 13 12 12 13 11 9 11 12 13 12 14 15 15 18 19 18 20 22 24 26 26 27 30 29 23 22 24 24 23 22 24 25 25 26 23 21 21 20 19 18 16 16 15 15 16 15 14 14 13 12 11 10 11 9 9 10 12 12 10 11 12 12 10 9 10 9 8 10 10
9 8 10 12 9 9 8 5 2 3 7 7 7 8 8 8 8 9 7 10 7 12 17 13 13 14 15 14 13 13 13 12 8 7 12 14 15 16 17 17 17 18 18 19 19 17 19 20 23 28 30 28 21 19 24 26 23 22 22 23 25 24 21 21 20 19 19 18 17 17 16 16 16 16 15 14 12 13 12 11 12 11 10 9 10 12 11 10 11 12 11 10 10 10 9 11 10
11 11 11 11 8 7 8 7 5 7 8 6 8 9 10 10 9 11 6 9 10 7 15 15 14 13 14 13 13 12 11 11 11 12 16 15 15 16 17 17 17 17 18 19 15 14 16 19 23 26 27 23 16 18 24 25 23 22 20 19 23 23 21 21 20 19 19 18 17 17 18 18 17 16 15 14 13 12 12 12 12 12 12 11 10 11 12 11 11 12 10 10 11 10 9 11 10
9 12 11 10 10 9 7 8 8 9 7 7 10 10 11 10 9 11 9 14 12 5 10 13 14 13 12 11 12 11 11 12 13 15 14 14 15 14 16 16 17 17 16 15 12 14 17 18 19 18 17 15 15 21 25 23 22 22 20 16 19 22 22 20 19 19 19 20 19 18 19 19 18 15 13 14 13 12 11 12 12 12 11 12 11 11 12 11 10 11 10 11 11 9 10 12 10
4 8 10 11 11 10 9 9 9 8 7 9 11 11 10 10 9 8 10 16 11 3 6 8 9 10 10 8 9 9 9 11 13 15 13 13 14 14 15 14 15 15 12 13 14 17 15 12 13 11 11 13 18 25 26 24 21 20 20 17 19 22 22 21 20 20 20 21 21 20 19 18 17 14 12 12 12 12 11 10 11 11 10 10 11 10 10 9 8 8 8 10 10 9 13 12 9
7 8 9 10 11 11 11 11 9 7 7 10 10 11 11 10 10 9 12 15 9 5 5 6 6 9 8 5 7 7 7 11 14 14 12 12 13 14 15 14 14 11 10 13 13 16 14 12 15 15 15 17 22 27 25 24 22 20 22 21 21 22 22 24 24 22 22 22 20 21 20 17 16 14 11 12 12 12 11 10 10 10 10 9 9 9 8 8 8 8 7 7 8 9 12 9 8
10 9 8 11 12 12 13 13 12 9 8 10 9 9 11 11 12 12 15 16 10 9 6 5 9 11 7 6 6 6 7 10 13 13 13 13 13 14 15 14 12 11 12 13 13 14 15 16 20 21 20 20 22 25 23 22 23 23 22 20 21 22 22 24 26 26 25 22 19 20 19 17 16 13 11 12 12 12 12 11 10 9 10 10 9 9 9 9 9 9 7 10 14 13 12 9 10
10 10 8 9 10 11 14 14 13 12 10 8 5 5 8 12 16 15 15 17 10 9 8 8 12 9 8 7 7 7 8 11 12 12 14 15 13 13 14 13 12 12 13 15 16 18 19 19 20 21 21 21 22 23 22 23 24 23 20 18 19 21 21 23 26 26 24 21 19 18 19 18 16 14 14 14 13 13 12 12 11 10 11 11 11 11 10 9 9 9 8 11 15 15 14 12 12
8 9 8 7 7 9 14 15 13 12 10 7 4 5 8 12 15 17 15 18 11 9 9 13 16 11 7 7 7 7 8 7 4 6 13 15 13 13 13 14 13 12 13 16 18 18 20 19 19 21 22 21 22 23 23 23 23 22 19 18 19 20 20 21 23 24 22 21 18 17 18 17 16 14 15 15 14 13 12 11 11 11 11 11 11 11 10 9 9 10 10 10 12 13 13 12 13
7 7 7 7 7 9 10 13 14 10 8 9 7 7 8 13 14 16 19 17 11 8 8 12 17 13 9 8 7 7 5 2 6 9 17 17 14 14 14 15 15 14 14 16 18 19 20 19 19 22 23 22 23 24 24 23 20 19 18 18 20 21 20 20 21 22 23 22 19 19 17 16 17 17 15 15 14 12 11 11 10 11 12 10 10 12 11 10 10 10 10 11 12 13 13 12 12
7 7 7 8 9 7 4 13 14 12 8 10 11 8 8 11 11 7 14 10 9 7 10 9 17 15 12 11 8 5 3 5 5 15 21 17 15 14 13 14 15 15 15 16 18 20 21 20 20 22 24 24 23 24 26 25 20 18 17 17 18 21 20 18 19 20 24 24 22 22 19 18 19 17 16 16 14 12 11 11 11 12 12 11 11 11 10 9 11 10 9 11 13 14 13 13 12
7 7 7 8 11 9 5 11 14 14 9 8 11 8 10 14 8 4 10 6 6 9 10 9 12 15 11 9 9 7 6 6 4 17 20 15 15 13 12 14 15 15 14 14 16 19 20 22 21 22 24 24 22 24 26 25 21 19 20 19 19 19 19 18 19 19 22 24 23 23 22 20 20 18 17 16 15 12 12 11 11 12 11 11 11 10 9 9 10 10 11 12 14 14 12 11 12
8 9 7 8 10 11 7 8 12 12 9 7 10 9 11 16 8 4 8 9 9 10 10 12 10 11 9 8 7 7 8 9 9 19 19 14 14 13 13 14 15 14 13 13 15 18 19 21 22 22 23 22 21 22 24 24 21 21 22 21 21 20 19 20 21 20 21 20 18 20 22 20 20 19 17 15 14 12 12 11 11 12 11 11 11 10 10 10 10 11 13 14 15 13 11 11 12
13 9 8 9 8 10 11 5 11 10 8 7 9 8 9 12 11 7 7 10 11 11 9 10 9 10 10 9 5 4 6 6 9 18 16 15 15 14 14 15 16 14 13 15 17 19 20 21 21 21 21 21 20 20 23 24 22 21 22 21 22 21 18 20 19 19 19 14 12 17 18 18 18 17 15 14 13 12 12 12 12 12 11 11 12 10 11 12 10 12 14 14 14 12 11 12 13
14 11 8 10 8 9 11 7 13 9 5 6 6 8 9 10 11 12 10 8 11 12 10 9 11 11 11 12 12 11 9 4 5 13 15 16 15 13 13 15 18 16 14 17 18 20 20 21 21 21 20 22 22 20 21 23 22 21 21 19 19 18 15 16 15 16 17 11 13 19 17 16 16 13 15 15 13 13 13 13 13 12 11 11 11 11 12 13 11 12 13 12 12 12 12 13 15
12 8 8 10 8 7 8 7 12 9 4 5 6 9 11 11 11 13 11 11 12 10 10 9 12 11 10 12 16 15 11 9 4 11 14 15 15 15 13 13 18 18 16 18 18 19 21 20 20 19 20 22 22 20 19 21 20 19 18 15 15 15 13 15 14 15 18 14 15 20 18 16 15 13 14 15 15 14 14 13 12 12 11 10 12 11 11 13 12 12 13 12 11 12 12 14 16
8 5 8 9 7 5 8 8 7 7 4 4 6 9 12 13 13 13 12 11 11 13 10 10 11 12 9 11 13 14 13 14 13 13 14 13 15 16 14 13 16 17 17 18 18 20 21 20 19 19 19 19 20 20 18 18 17 15 15 13 13 14 13 14 13 15 17 15 15 18 16 14 14 13 12 12 13 14 14 13 11 12 11 11 12 11 10 13 14 12 13 13 12 12 11 14 15
5 5 8 8 9 8 7 9 10 9 5 1 5 9 10 11 12 10 10 10 11 15 15 12 12 11 11 12 12 11 13 16 18 16 13 13 14 14 15 14 14 14 15 17 19 21 20 19 19 19 18 17 18 18 16 15 14 14 15 15 14 13 12 12 13 15 14 13 14 16 14 14 14 13 11 12 14 14 14 13 12 12 11 12 13 11 11 13 14 13 13 13 13 13 12 12 12
7 8 9 10 11 12 10 10 11 9 4 3 3 8 7 9 12 11 10 11 13 14 16 13 13 12 12 13 12 11 10 14 19 19 14 13 13 14 15 16 16 15 13 12 18 20 19 18 19 19 17 16 16 15 14 14 12 12 14 14 12 11 11 12 14 16 14 13 14 13 13 14 14 12 12 13 14 14 14 14 12 11 11 12 12 12 12 13 13 13 13 13 13 13 13 13 10
8 10 12 13 14 14 14 13 11 8 7 6 7 7 6 9 14 15 12 13 16 15 15 16 12 13 12 11 10 10 8 9 15 18 16 14 14 14 14 17 18 18 16 13 14 15 17 18 20 20 18 16 17 16 15 14 11 11 13 13 11 10 12 13 15 18 16 15 16 13 11 11 11 11 13 13 13 14 14 14 13 11 12 13 12 12 12 12 13 12 13 14 12 12 14 14 10
7 9 12 14 15 15 15 15 11 7 7 6 8 8 6 7 10 11 12 14 16 14 15 16 12 11 12 11 11 10 10 8 13 16 17 16 15 14 14 19 20 19 19 15 10 14 19 21 23 22 19 19 20 19 18 18 17 15 15 13 10 10 11 13 15 17 15 15 15 12 9 9 10 12 14 14 14 14 14 14 14 12 12 13 12 11 12 12 12 12 13 13 12 12 14 14 11
6 9 12 14 14 13 13 13 10 7 7 8 11 10 7 8 7 9 13 13 11 9 11 13 11 10 6 4 5 2 3 2 9 14 16 16 15 16 18 23 24 22 20 15 12 18 22 22 23 23 22 23 23 22 22 23 24 23 20 16 13 11 10 11 14 15 14 14 14 12 11 10 10 12 13 13 14 15 14 14 13 13 13 13 13 13 11 11 10 12 14 13 12 13 14 14 12
8 11 14 10 7 8 9 10 9 8 8 8 11 10 8 8 7 9 13 14 11 10 9 5 3 4 4 8 8 8 10 7 8 8 8 9 11 16 20 22 25 26 23 22 22 22 22 20 22 23 23 25 25 27 28 26 25 27 25 23 21 16 11 10 12 13 15 16 14 13 13 12 10 11 11 11 12 13 13 13 12 12 13 12 13 13 12 11 10 11 13 14 14 13 12 12 13
9 13 12 5 3 7 9 8 8 7 8 9 10 11 9 7 7 7 8 9 8 7 3 5 7 6 8 10 9 8 9 7 10 8 6 8 9 12 15 19 26 28 25 27 29 26 21 19 20 22 25 26 26 28 30 28 25 25 25 25 25 20 15 13 12 12 14 16 15 13 14 12 10 10 10 10 10 11 12 13 13 12 12 12 13 12 11 13 11 11 13 13 14 14 11 10 12
8 10 8 5 5 7 8 6 7 6 7 10 12 13 11 7 6 4 3 0 4 4 6 9 9 9 9 8 8 8 9 7 8 6 5 6 6 4 7 16 22 24 22 24 27 24 19 17 20 23 26 27 26 25 27 27 27 27 27 27 25 23 21 18 14 13 14 16 15 14 14 12 10 10 10 10 10 10 10 12 12 12 11 11 12 11 11 12 12 12 14 12 12 14 14 12 12
9 7 5 5 5 6 7 7 7 7 8 10 13 15 12 9 7 4 5 7 10 7 7 8 7 8 9 8 8 9 8 9 7 5 5 5 5 9 15 15 11 15 17 19 21 22 17 16 21 23 23 23 24 23 25 27 28 29 29 27 26 26 25 22 18 15 16 16 15 15 14 11 9 10 11 11 10 10 10 10 11 11 10 9 10 10 11 12 11 13 14 13 12 13 14 14 13
8 7 6 6 6 6 7 6 6 7 8 9 12 13 10 7 4 2 3 8 13 10 8 8 8 9 9 9 8 8 7 8 4 3 4 6 7 10 13 7 3 10 17 18 20 21 17 17 21 20 18 20 23 24 25 28 29 30 31 29 27 27 27 25 21 17 17 16 14 13 13 11 10 11 11 11 11 11 11 10 9 9 9 10 9 9 10 11 11 12 13 13 13 14 13 12 13
8 8 7 7 6 6 6 6 6 7 7 9 10 8 7 6 3 10 9 10 13 13 11 11 12 11 10 11 11 9 6 4 3 2 3 5 5 5 8 9 8 7 11 16 21 22 17 18 19 18 17 21 25 25 24 26 29 30 32 30 27 26 26 25 21 17 15 14 12 11 10 11 12 12 12 12 12 11 10 10 9 8 8 8 9 9 9 10 10 10 11 12 12 13 13 11 12
9 9 8 8 6 6 6 5 5 5 4 7 7 5 5 5 1 7 10 12 12 11 10 10 10 8 8 10 11 11 9 3 3 2 5 7 3 2 5 10 11 9 9 14 23 24 19 18 19 18 18 21 26 27 24 23 26 29 30 28 26 25 24 23 20 16 14 12 12 11 10 12 13 13 12 13 13 11 9 9 9 8 8 8 9 9 8 9 10 10 11 12 12 12 12 11 11
7 8 9 8 7 7 5 4 5 3 3 5 5 3 2 2 4 6 10 13 11 8 8 8 8 6 6 8 10 9 9 9 5 4 3 4 5 7 4 6 11 13 12 15 23 23 19 18 18 19 19 20 24 27 26 22 23 28 29 28 26 25 24 22 19 17 14 13 13 12 12 13 13 13 12 12 13 11 10 10 9 8 8 8 9 9 8 9 9 10 10 10 12 13 12 11 11
4 6 8 8 9 9 5 5 6 4 4 5 4 3 1 4 4 9 12 10 9 9 8 8 7 6 6 6 7 7 8 9 8 4 3 7 10 12 10 10 12 12 12 17 24 23 20 19 20 21 21 20 22 24 25 24 25 27 29 29 29 27 26 24 21 19 18 16 14 13 15 16 14 13 13 12 11 11 10 10 9 9 8 8 9 8 8 8 7 9 10 9 11 12 12 11 11
6 5 6 7 9 9 5 5 6 6 7 5 5 8 5 3 1 6 9 7 8 8 7 7 6 5 5 3 2 1 3 6 8 8 6 0 8 13 15 16 17 15 16 20 24 20 20 21 24 26 27 25 23 23 25 26 26 28 29 31 30 30 28 26 24 23 21 18 16 16 18 16 15 14 13 13 12 11 11 10 9 9 8 8 7 7 8 7 7 8 9 10 10 11 11 10 11
11 7 6 6 6 6 5 4 5 6 6 4 7 10 3 4 2 4 6 6 7 5 5 6 6 6 5 5 5 4 4 6 8 9 9 10 6 1 2 6 14 18 17 18 18 14 17 23 25 26 28 28 25 23 25 26 26 28 30 31 31 32 30 27 26 25 23 20 18 19 18 15 14 14 14 13 12 11 11 10 9 8 7 7 7 7 7 7 7 8 8 9 10 10 11 11 11
12 10 8 6 5 4 3 3 4 6 6 5 7 7 1 6 4 4 6 6 5 4 5 7 7 7 7 7 8 9 9 9 10 10 10 11 12 14 15 12 3 7 9 8 9 8 13 21 22 21 23 25 23 22 24 25 26 27 28 29 32 32 30 29 29 27 25 22 19 19 17 16 15 15 14 14 13 12 11 10 9 8 7 7 7 7 7 6 7 6 7 9 10 11 11 11 12
9 8 8 8 5 4 5 4 4 6 5 4 6 4 3 4 5 6 6 6 7 6 6 6 6 7 9 10 9 9 10 10 10 11 11 10 12 16 18 19 16 10 5 5 6 5 10 16 16 15 16 18 20 21 21 22 23 27 28 28 31 31 30 31 30 28 27 24 19 18 18 17 16 15 14 14 13 12 11 10 9 8 7 7 7 7 7 6 6 5 6 8 9 11 11 10 12
6 7 8 8 7 6 7 6 6 7 6 5 5 1 4 3 3 5 7 8 10 10 7 6 7 9 10 10 10 10 10 11 11 11 11 11 12 15 16 19 20 19 17 15 14 8 2 4 6 5 5 9 17 20 19 19 20 25 28 29 29 30 31 32 31 29 27 23 20 19 19 17 16 15 14 14 13 12 12 10 9 9 7 7 7 6 6 6 6 5 5 7 8 10 11 11 11
Wind_Direction
241 249 252 254 250 261 257 224 241 214 222 260 246 254 244 238 316 319 135 67 25 34 37 14 10 4 289 307 308 352 41 43 38 32 89 116 116 113 111 110 116 120 122 133 141 140 144 150 154 158 161 164 163 161 160 161 159 157 155 153 151 150 151 149 146 142 138 136 135 132 127 129 129 125 120 114 113 110 107 106 109 113 109 105 103 100 94 88 82 78 76 77 78 78 81 82 87
240 253 246 249 250 254 256 207 246 245 218 249 245 248 242 184 13 287 298 65 70 54 33 348 335 309 281 291 280 279 66 63 77 80 102 123 111 110 123 118 119 125 123 130 134 133 138 148 155 157 161 164 163 162 160 160 159 157 156 154 153 153 153 151 148 143 140 141 139 135 132 136 133 130 126 119 117 110 107 111 115 115 111 111 108 102 96 90 84 79 76 74 74 75 77 78 91
243 261 249 234 234 239 260 225 236 262 237 249 256 229 137 120 53 43 39 53 52 41 36 292 283 282 258 232 244 140 85 76 91 94 109 129 122 118 130 125 122 125 124 128 129 130 138 151 156 157 161 163 163 162 160 160 158 157 157 155 155 155 154 152 149 144 144 144 142 140 137 139 136 135 131 124 122 115 113 119 121 120 117 117 112 106 98 92 87 82 79 75 71 71 75 78 93
245 264 258 237 226 224 239 243 232 258 257 256 274 53 76 80 64 56 44 44 19 350 308 282 270 207 262 268 33 70 88 76 88 105 121 126 129 127 131 131 124 122 127 130 128 130 142 155 157 159 161 162 162 161 160 159 158 158 158 156 156 156 154 152 147 144 145 147 146 144 140 138 136 139 136 129 129 125 124 128 128 124 121 120 117 111 103 98 90 86 80 75 71 70 71 76 92
250 262 259 248 246 245 238 251 237 245 253 267 281 60 44 49 64 51 28 16 320 297 275 285 271 183 246 9 36 57 85 79 80 96 104 111 124 128 129 131 127 124 131 132 130 132 146 156 156 159 159 161 161 160 160 158 158 158 158 157 156 156 153 149 144 141 145 149 146 143 139 132 131 137 137 132 133 131 130 135 132 128 125 123 122 119 112 103 93 89 84 75 73 70 68 77 93
248 257 247 239 265 295 275 252 239 241 241 261 276 76 65 55 52 36 355 303 268 257 245 254 264 229 101 62 59 57 53 86 92 99 106 113 124 129 130 131 131 130 133 134 136 138 149 156 154 156 158 160 161 160 158 156 157 158 158 157 157 154 150 147 141 141 145 146 144 141 137 131 128 133 133 131 134 134 137 144 140 137 129 120 117 117 110 101 95 92 89 83 80 73 66 79 98
242 252 221 218 254 270 255 253 246 252 237 238 264 47 72 68 48 11 338 319 338 203 212 226 256 272 125 113 76 59 54 77 100 110 116 118 123 129 133 130 132 133 132 132 137 142 151 154 152 155 157 159 159 159 157 156 157 157 158 157 156 151 147 147 143 143 145 142 141 140 137 133 129 132 135 136 138 142 149 151 144 139 127 120 118 112 107 104 106 103 97 92 89 79 74 92 106
242 257 230 224 239 231 236 254 251 260 254 229 282 36 66 51 32 332 330 312 298 286 184 203 242 260 134 112 87 68 67 81 100 111 120 122 126 134 134 129 130 131 129 129 135 144 152 153 151 154 155 157 158 158 157 155 156 155 157 156 153 149 147 150 148 147 146 142 140 140 138 135 134 137 142 144 146 150 155 152 144 139 132 132 126 115 113 115 116 111 106 97 92 86 89 107 114
237 244 250 244 244 244 240 249 252 258 251 196 37 53 65 13 6 307 309 276 282 294 214 204 213 232 104 96 90 88 81 92 104 112 122 127 133 137 133 130 128 126 127 127 132 143 151 152 151 153 154 157 157 157 156 155 155 154 154 152 151 151 151 153 152 151 150 146 142 142 141 139 141 144 147 148 150 154 155 147 142 140 134 133 126 120 118 117 116 108 108 97 94 98 101 115 121
226 228 242 254 250 254 247 246 245 249 244 105 79 78 64 18 5 299 301 284 286 298 253 212 233 241 96 94 93 93 92 104 110 117 127 131 135 134 131 129 125 123 125 125 130 140 149 153 154 154 154 156 156 155 155 154 152 151 151 151 153 154 154 155 155 156 154 150 146 147 146 144 147 151 152 151 152 155 156 147 139 135 130 131 130 125 117 114 118 111 106 97 96 104 103 115 124
227 220 231 258 254 254 255 251 244 232 178 78 66 84 59 4 355 298 291 288 280 271 257 156 230 203 93 89 94 104 106 112 118 126 134 135 132 130 129 126 125 127 128 128 133 140 147 153 155 154 155 155 156 156 153 152 151 151 152 153 155 155 156 156 156 158 158 155 151 150 150 149 149 152 154 152 152 157 159 155 142 135 134 134 132 125 118 118 120 115 109 104 101 102 100 112 125
246 228 218 247 253 258 262 263 268 234 113 108 132 97 70 294 339 307 309 312 296 266 234 179 212 131 95 84 98 119 118 120 126 134 141 137 130 130 132 130 128 131 134 133 136 143 146 151 155 156 156 156 156 156 155 154 154 155 155 155 156 156 157 158 158 160 162 160 157 154 152 152 151 152 157 154 155 163 164 160 149 139 141 139 134 126 129 130 121 116 115 111 107 103 101 110 124
245 248 237 248 259 270 272 278 289 297 81 79 104 110 103 300 13 339 320 311 285 261 269 227 124 92 96 96 111 125 122 128 134 140 146 139 136 137 138 136 134 137 139 137 140 145 147 149 154 157 159 158 157 157 158 158 158 158 157 158 158 159 161 160 160 161 165 165 162 157 154 155 157 158 162 160 160 168 170 164 155 146 145 143 143 137 141 142 123 118 121 115 109 106 102 107 121
237 255 262 269 278 274 278 282 288 286 12 88 97 113 99 341 17 332 292 284 268 274 2 12 81 96 114 115 121 136 130 137 140 144 147 142 142 142 141 140 140 142 141 140 142 146 149 149 151 158 160 157 158 159 160 160 160 160 160 161 160 162 162 160 161 163 167 168 164 161 159 159 157 158 162 163 164 170 179 179 175 173 165 148 147 144 148 147 123 119 125 119 111 105 102 106 114
241 262 266 275 277 268 273 268 274 285 70 93 93 72 32 308 26 305 286 284 295 3 5 341 42 81 138 136 137 149 140 141 143 146 146 144 144 143 143 142 144 147 145 141 143 148 150 150 151 157 157 156 160 159 160 162 162 162 162 162 160 161 157 154 158 161 163 163 164 162 161 157 151 153 155 156 159 167 180 188 193 190 187 162 145 145 150 146 125 122 129 126 117 109 106 108 111
243 269 270 264 264 261 258 250 251 264 77 79 45 59 333 301 63 303 333 297 290 344 8 25 37 39 98 123 129 139 142 142 145 147 144 145 145 146 146 146 150 152 148 144 148 153 151 153 155 155 157 157 158 156 161 164 165 165 163 162 159 157 153 151 155 158 160 160 162 160 155 151 148 149 148 149 152 159 172 184 188 186 189 171 147 148 153 147 132 125 133 135 127 118 114 113 113
237 248 261 256 254 251 256 270 282 255 84 75 39 46 339 334 57 300 354 252 264 287 84 61 52 43 66 108 128 140 145 145 147 148 146 147 150 150 149 151 155 154 151 149 155 161 157 158 159 158 159 158 155 156 162 165 165 165 163 163 160 158 155 154 158 157 157 158 160 158 153 148 146 146 147 149 151 156 166 174 179 183 186 174 157 156 155 150 138 128 136 144 139 128 123 121 119
242 232 243 250 245 249 309 25 16 18 63 56 43 42 328 331 346 334 312 243 229 215 93 75 66 51 69 118 135 145 147 149 152 152 152 153 156 153 152 158 160 158 157 156 160 167 163 161 164 161 159 157 156 157 162 165 164 162 162 163 160 159 159 159 160 156 154 156 158 156 151 148 147 148 150 151 152 156 159 161 167 175 177 175 171 166 160 154 144 138 140 148 149 139 130 128 126
235 237 235 242 251 294 5 23 4 14 40 24 25 56 4 316 326 331 305 288 248 220 101 87 86 82 90 123 139 149 147 153 158 158 157 159 162 156 157 165 165 161 163 164 164 170 169 165 167 163 160 158 157 156 161 166 163 160 158 157 158 157 156 158 158 156 156 157 158 159 153 150 152 151 150 151 152 152 153 156 157 160 172 177 177 172 165 159 152 149 145 150 156 148 136 130 126
224 238 243 237 260 350 360 357 6 7 360 344 331 25 19 281 308 333 304 309 278 245 122 113 117 121 119 129 148 155 152 160 164 163 161 165 166 162 165 167 165 165 168 170 167 171 172 168 167 164 162 158 156 157 160 165 163 159 156 153 154 152 152 157 159 159 161 162 163 166 159 154 156 152 149 149 150 149 150 156 156 158 171 173 174 174 168 164 162 162 156 156 161 156 146 143 139
213 221 245 248 291 348 341 15 12 355 336 326 306 322 305 288 337 324 290 287 282 286 127 135 136 138 140 148 159 161 162 165 168 167 165 171 171 166 169 168 168 169 170 173 171 173 171 167 166 163 162 158 157 161 162 164 162 159 158 154 152 154 158 162 165 164 164 168 168 167 164 161 162 157 153 154 150 148 152 158 157 157 165 169 172 173 172 171 167 169 171 164 164 166 163 165 174
230 228 249 263 294 319 354 42 1 350 322 302 285 279 293 320 328 285 283 284 311 81 112 130 139 147 148 155 161 166 170 171 175 171 168 175 175 171 169 167 170 171 172 176 176 173 168 166 166 164 163 160 160 163 162 162 163 161 158 156 157 161 166 165 165 169 169 168 166 168 169 167 167 165 161 157 150 150 158 156 148 149 158 167 169 168 177 179 172 176 182 175 172 180 181 179 181
242 241 249 263 275 277 291 4 352 5 298 285 284 282 304 317 290 275 272 279 314 102 117 125 137 148 147 151 156 168 179 180 176 163 173 180 178 180 172 169 175 175 175 179 182 172 162 163 166 168 166 161 160 161 162 164 163 162 157 157 164 167 166 164 166 174 174 170 170 174 176 173 170 168 161 156 154 162 167 154 152 158 157 161 164 167 180 185 181 183 190 191 191 199 202 196 189
236 250 251 257 262 261 272 291 319 303 276 276 280 286 291 277 271 269 259 277 291 107 117 124 134 143 143 149 158 172 184 175 149 163 197 193 187 184 175 177 180 180 180 183 182 163 152 157 166 170 167 163 160 158 165 168 159 158 158 155 163 166 163 164 170 174 175 176 179 179 177 174 171 167 162 160 167 177 175 165 169 173 168 167 170 176 184 190 189 187 194 199 204 215 211 198 194
231 246 257 262 272 269 271 278 276 265 261 267 267 265 264 258 264 271 278 277 267 111 113 130 133 143 146 152 163 173 182 164 155 188 205 196 192 185 175 180 179 183 189 183 170 152 156 167 172 170 168 166 160 158 166 167 158 160 163 157 160 164 165 167 169 170 174 179 182 181 178 172 167 168 168 165 170 180 178 173 174 175 176 179 179 181 185 192 192 190 197 198 204 219 213 201 199
230 240 248 256 263 258 253 253 252 254 252 255 256 253 253 249 253 262 264 259 255 108 124 141 137 151 151 154 166 171 180 171 171 192 202 193 191 184 180 185 179 188 193 169 150 165 172 172 174 170 165 155 144 158 166 165 161 163 166 163 161 163 167 170 170 172 176 181 180 179 180 173 166 173 179 170 169 178 176 172 174 177 180 180 182 185 186 193 195 194 201 199 199 205 195 194 196
250 249 252 258 264 262 258 253 248 252 254 254 256 259 258 248 243 243 242 246 243 149 169 168 158 162 145 150 166 172 183 183 182 188 196 192 189 188 190 193 188 195 186 149 147 169 165 153 161 161 157 147 151 167 170 164 160 160 163 161 157 158 163 171 180 182 178 180 178 175 176 174 170 176 185 178 175 177 172 173 177 177 175 174 180 180 180 185 187 185 189 195 197 193 183 182 183
265 264 269 267 267 267 262 259 253 248 252 253 253 260 259 249 242 240 245 243 216 175 200 194 161 131 129 155 162 175 191 192 190 189 194 190 189 193 192 196 193 186 166 149 157 163 148 148 166 168 161 153 159 170 171 164 162 165 166 162 160 159 160 168 181 184 181 180 176 174 174 174 173 172 183 183 177 174 171 175 175 172 168 167 172 169 169 169 166 165 155 152 160 179 185 178 174
260 265 272 264 260 256 248 246 241 233 239 244 240 251 250 242 238 237 251 250 203 169 195 169 123 115 139 169 167 193 199 193 194 193 196 190 189 194 194 195 183 166 158 156 158 157 157 173 183 178 166 157 158 167 169 165 168 171 166 164 163 161 161 164 172 177 180 178 175 176 173 174 174 169 182 184 176 176 175 175 175 172 166 164 167 164 165 163 158 163 145 125 132 147 163 165 172
252 253 255 263 262 249 237 230 225 225 230 227 220 253 250 239 230 223 244 250 204 174 191 137 120 141 171 174 179 195 200 202 197 195 196 188 186 191 193 189 176 165 159 153 146 153 172 184 187 178 164 161 164 168 165 160 169 171 165 165 160 158 163 163 167 171 174 175 176 176 173 174 171 167 180 181 177 179 176 174 172 169 166 167 169 162 160 161 157 160 154 134 135 139 143 150 154
250 249 239 245 256 257 240 213 202 216 214 186 183 258 265 263 238 206 225 241 202 181 197 144 133 158 174 180 191 190 208 211 180 215 207 188 187 191 190 189 184 177 161 155 149 155 177 182 181 174 162 161 167 168 162 158 167 168 166 168 157 155 163 165 169 171 173 175 176 175 178 177 170 172 183 183 179 176 174 174 170 167 168 168 166 161 156 159 157 152 153 145 139 136 131 135 136
235 244 241 231 235 261 242 183 179 208 193 169 201 253 255 273 263 202 207 228 190 176 214 159 140 155 168 177 197 193 207 68 42 270 226 189 193 195 186 185 182 180 170 164 157 158 172 174 171 172 167 164 165 165 160 160 168 168 169 168 157 154 161 171 176 175 175 176 176 176 180 181 178 183 187 184 178 173 175 173 171 170 166 165 164 162 158 165 166 149 149 150 140 132 125 131 135
220 226 241 241 229 245 215 157 172 201 182 174 209 251 252 265 286 195 180 193 168 187 237 188 145 157 174 171 182 185 183 86 57 258 230 186 194 198 181 178 173 181 178 165 159 157 163 167 167 170 173 171 165 163 160 161 171 171 169 166 159 157 164 180 183 179 177 176 178 178 179 182 182 186 187 185 177 172 177 174 176 172 163 167 169 164 165 176 174 155 149 151 144 137 132 135 134
217 217 235 255 248 251 216 162 182 201 187 190 205 226 264 270 293 97 128 149 192 214 237 229 170 163 172 162 168 175 180 140 144 244 229 185 194 196 176 174 174 186 179 159 159 158 160 167 169 169 174 174 167 163 160 163 169 167 168 169 164 161 169 184 186 184 183 180 183 182 179 179 177 182 188 186 179 172 175 174 173 168 165 172 169 164 167 172 171 159 148 148 151 146 137 137 135
224 212 212 238 253 264 255 167 173 191 181 215 226 214 254 270 267 147 149 175 222 239 236 240 206 157 146 156 179 187 179 160 181 226 219 184 192 187 171 172 172 180 172 158 160 159 161 167 168 167 170 173 169 164 162 164 166 164 165 169 169 166 167 176 181 184 188 191 197 188 178 177 178 181 185 183 179 174 176 176 168 166 171 172 167 166 162 157 158 152 143 144 154 150 139 140 138
243 247 230 233 240 249 258 184 155 172 170 205 243 232 241 265 268 250 213 188 202 226 235 244 216 159 146 158 183 216 187 165 200 220 205 180 188 181 168 169 167 169 166 162 161 158 160 161 164 164 165 169 169 166 167 166 164 164 166 168 173 174 168 169 172 176 186 202 209 189 176 178 180 179 180 179 179 180 179 175 165 167 175 170 167 169 160 156 153 148 145 143 146 145 142 143 140
264 299 291 269 261 235 241 197 165 184 197 196 239 259 255 262 268 268 262 237 220 211 213 246 235 191 169 168 180 202 195 163 242 238 207 178 176 175 168 165 163 164 167 166 162 159 160 160 162 163 166 171 170 167 169 168 166 168 170 170 172 173 167 166 165 167 177 189 189 182 177 179 183 184 182 180 183 185 177 170 168 168 174 175 170 166 160 161 161 152 149 147 143 145 148 146 144
270 301 289 276 272 251 251 211 165 166 194 211 244 266 263 259 259 263 267 264 260 238 203 222 249 228 194 190 195 196 177 142 186 244 217 176 159 165 164 159 164 167 167 165 163 162 161 163 163 164 170 174 175 173 171 172 172 173 176 171 166 165 164 166 164 162 172 183 181 176 175 180 188 193 187 183 188 183 169 170 177 171 172 176 170 165 164 164 167 160 151 152 152 149 149 150 149
266 271 260 264 269 271 270 246 187 163 184 223 254 267 263 255 247 247 249 247 260 267 233 202 238 247 220 220 222 202 169 146 163 205 207 169 150 159 163 163 169 170 170 168 167 165 161 163 163 165 171 173 176 176 174 177 174 172 175 168 164 164 157 159 162 160 169 183 179 169 170 179 188 195 191 183 186 181 170 174 179 176 176 171 166 169 166 162 163 161 157 160 157 149 149 153 156
257 249 249 250 258 264 266 253 234 218 204 187 281 282 273 266 263 254 249 246 248 261 254 216 216 243 233 230 244 221 176 153 165 183 183 161 151 160 165 167 171 173 177 175 173 168 158 158 161 164 172 174 177 178 176 177 170 169 172 165 168 171 153 149 162 166 165 173 173 164 170 184 186 191 193 180 181 182 178 180 178 179 179 167 167 168 158 160 162 159 164 168 158 150 149 152 161
243 243 249 250 251 252 252 258 259 251 224 151 242 279 272 261 264 259 251 249 245 248 258 242 211 224 238 230 239 237 199 163 167 173 168 163 164 167 165 160 167 184 195 193 188 176 153 153 161 161 168 175 178 179 173 170 161 160 166 161 157 159 150 147 161 170 168 167 172 169 175 188 185 190 201 191 189 189 182 183 178 177 177 166 168 168 159 164 167 162 170 172 161 156 153 150 158
246 233 234 249 259 260 260 265 270 263 239 192 202 248 260 243 241 244 243 239 237 231 240 249 230 215 229 234 232 239 235 183 164 165 165 167 167 166 161 157 166 183 196 217 211 173 147 157 166 163 166 170 173 176 172 171 165 160 175 175 155 152 160 157 164 174 174 171 175 175 178 187 188 199 205 195 195 196 186 185 182 179 178 167 169 172 167 170 171 170 175 172 164 160 156 151 155
251 237 223 230 247 257 264 270 274 264 256 250 244 255 271 260 247 251 255 243 235 223 217 230 241 230 222 231 231 226 235 206 162 158 163 166 168 165 162 169 177 177 185 213 210 162 164 174 169 164 169 172 174 176 174 177 177 173 183 187 167 167 177 168 169 175 174 171 172 175 181 188 194 204 202 193 196 198 192 192 188 184 179 170 171 174 173 175 174 174 174 169 162 156 154 154 159
242 246 237 227 231 245 254 260 269 271 274 274 267 267 269 268 269 274 281 274 255 243 230 215 221 242 236 252 268 259 305 233 157 158 161 162 164 165 168 175 178 171 173 183 165 168 184 178 163 163 171 176 175 176 175 177 179 174 174 181 176 179 188 178 174 175 172 173 173 175 183 191 200 205 200 194 197 199 201 200 191 184 178 173 174 173 171 175 175 173 167 165 168 163 158 160 167
240 248 256 252 240 258 267 260 255 253 257 260 257 256 255 255 256 257 270 278 264 244 248 230 208 278 18 31 11 24 29 52 126 141 148 155 161 168 169 164 162 161 159 156 159 182 190 169 160 167 174 177 176 178 178 176 177 173 173 180 173 169 183 186 182 184 180 179 180 180 185 188 196 205 200 194 196 197 197 195 189 184 178 175 177 175 170 172 177 170 158 159 168 168 164 168 175
240 256 270 274 230 256 270 267 262 255 248 252 250 249 258 262 253 249 252 274 276 229 198 45 40 28 31 26 16 17 20 62 123 127 134 159 178 183 162 140 144 153 154 156 169 190 188 166 165 171 177 182 180 180 177 171 170 172 178 181 169 159 171 179 183 191 188 185 187 189 188 186 189 198 196 192 195 191 186 189 189 187 185 180 179 178 173 173 179 173 162 161 161 158 160 174 184
242 261 272 255 222 245 258 257 262 264 250 251 250 248 255 262 263 263 220 145 22 59 76 47 29 25 20 14 15 6 6 51 99 101 103 148 174 181 104 105 128 147 158 163 176 197 197 182 180 177 180 186 185 183 177 170 169 171 177 180 169 162 166 172 179 186 188 188 188 190 189 183 181 188 187 187 191 187 187 195 192 185 189 187 178 178 174 173 177 173 168 166 158 154 157 165 175
233 247 251 248 229 222 235 234 232 241 249 255 254 250 246 249 268 259 178 116 75 61 57 51 30 14 2 358 5 358 18 59 72 56 47 58 70 57 50 56 100 147 167 171 185 205 208 197 194 187 181 183 185 185 179 170 167 171 177 178 175 172 172 176 181 183 186 187 186 186 181 174 176 182 183 182 184 186 189 195 193 185 184 181 178 181 174 169 174 173 169 167 165 164 159 159 167
222 233 221 238 244 224 226 227 222 232 244 250 254 257 249 248 301 7 124 90 73 68 54 37 25 17 359 357 3 360 37 72 49 2 55 51 44 62 73 79 171 179 175 177 194 209 205 196 199 194 182 178 179 183 182 171 164 171 177 177 180 180 177 178 182 182 181 182 186 183 172 169 178 180 180 180 180 186 188 187 189 186 180 176 177 177 166 163 171 176 175 171 175 180 171 165 174
216 233 221 222 235 233 227 226 238 246 252 263 273 276 256 244 20 50 65 59 56 60 52 26 18 17 359 357 3 354 3 87 104 344 13 57 65 91 124 162 197 201 179 184 203 209 197 190 199 198 185 179 177 179 183 175 165 170 175 176 180 180 176 176 178 179 177 178 186 185 175 180 186 181 178 179 178 181 185 183 182 179 175 174 176 176 165 162 168 170 175 179 180 186 183 177 180
211 225 233 230 232 245 244 233 244 254 269 289 296 291 260 237 51 51 62 61 50 47 49 41 31 18 355 358 6 357 337 332 103 71 352 17 45 168 166 170 182 194 192 205 216 210 191 183 193 196 187 183 182 181 183 178 168 169 173 175 177 175 173 170 168 173 176 177 184 187 187 191 190 182 178 178 175 172 175 178 177 172 169 168 170 174 166 163 170 167 170 183 184 183 184 182 184
210 211 227 233 235 247 259 254 259 272 280 275 269 282 327 101 107 58 60 69 71 69 58 52 48 32 14 9 11 9 341 332 19 74 67 5 303 279 264 192 188 192 194 217 226 212 188 180 185 192 190 187 185 184 184 179 169 169 171 173 175 171 168 163 161 172 180 181 187 192 195 197 193 183 178 178 171 166 170 171 171 169 166 165 165 169 166 164 178 175 165 176 183 182 183 182 186
230 218 225 236 240 244 251 253 256 253 245 246 230 240 236 130 97 52 58 70 82 95 90 74 67 55 41 24 15 8 337 329 353 23 136 181 213 228 233 215 201 200 198 216 226 210 188 181 183 188 192 191 187 183 182 178 170 171 173 173 172 168 166 163 165 177 184 184 186 193 201 201 193 180 174 174 167 166 171 168 168 169 162 163 163 164 165 163 172 173 165 174 181 181 186 187 188
248 239 237 244 244 246 248 246 246 237 238 236 218 229 226 170 120 44 59 64 58 68 82 83 77 65 57 51 59 65 296 323 355 6 7 49 188 195 204 196 187 198 211 218 222 205 183 184 186 187 190 190 187 180 177 177 173 173 175 175 172 168 167 168 172 177 179 180 184 198 206 199 186 178 173 171 169 172 174 167 168 170 161 161 163 161 165 163 161 164 169 180 178 175 184 188 190
236 244 245 243 237 239 239 244 248 242 243 246 233 238 279 34 53 83 77 70 56 45 54 63 52 40 39 34 28 26 16 7 9 14 13 7 11 25 242 192 175 183 200 216 218 195 185 194 194 192 191 187 183 179 178 180 177 174 176 176 174 170 168 172 176 174 173 176 186 199 201 187 176 177 174 172 175 175 174 169 167 169 162 160 162 161 162 162 161 163 171 178 176 176 186 189 191
227 239 240 236 243 248 241 237 249 250 247 251 245 231 93 31 18 67 82 88 89 75 51 38 26 18 19 25 18 9 12 15 9 11 17 13 11 11 0 345 311 182 185 212 217 187 195 209 208 205 195 182 178 179 179 181 180 176 176 176 175 172 170 174 175 172 173 175 183 190 187 177 174 174 173 175 178 177 175 172 169 170 167 166 166 162 161 160 160 165 173 178 182 184 188 193 194
219 232 236 237 241 244 242 230 233 254 254 253 256 234 98 36 6 30 42 55 65 64 59 41 23 16 14 18 19 13 12 13 10 7 7 9 13 15 10 1 355 352 344 308 282 234 210 221 225 220 203 181 178 183 183 183 181 178 176 176 176 173 172 175 173 172 174 172 176 181 178 174 172 170 173 175 177 178 175 173 172 172 170 167 166 162 161 165 165 173 183 185 189 187 188 196 198
250 234 240 248 245 241 246 239 221 232 246 257 257 216 89 44 22 26 11 28 44 40 44 49 30 21 15 12 16 21 23 18 14 10 4 7 13 15 13 13 11 5 2 355 340 333 270 268 297 272 228 171 172 182 186 188 189 186 180 174 173 171 171 174 171 170 171 169 173 178 174 171 169 170 175 176 178 179 174 174 173 172 174 169 169 171 170 174 178 188 198 191 190 195 196 196 193
Height
767 768 768 769 768 769 767 766 779 774 773 780 763 755 740 720 720 720 724 724 729 727 721 724 721 724 730 734 733 731 736 742 750 756 767 759 746 752 752 754 757 758 762 762 765 767 769 770 772 774 776 777 779 781 783 785 787 788 790 791 792 793 794 796 798 799 800 801 803 804 805 807 808 809 811 812 813 814 815 816 817 818 819 819 820 821 821 821 821 822 822 822 822 822 822 822 822
767 768 767 770 767 771 767 762 782 776 772 779 755 744 731 715 722 725 724 727 733 730 723 724 723 724 724 725 725 730 740 740 740 746 750 747 749 753 753 757 758 760 763 763 766 768 770 771 773 775 777 778 780 782 784 786 788 789 791 792 793 794 796 797 799 801 802 803 804 805 806 807 809 810 811 813 814 815 816 818 819 819 820 821 821 822 822 822 823 823 823 823 823 823 823 823 823
768 768 767 769 766 767 765 763 780 778 773 772 748 728 720 721 727 727 725 726 728 724 725 726 725 725 725 730 728 734 747 740 738 743 745 746 750 754 756 758 758 763 764 766 768 769 771 772 774 775 777 779 781 783 785 787 789 790 792 793 794 795 797 798 800 802 803 804 805 806 807 809 810 811 812 813 815 816 817 819 820 820 821 822 822 823 823 824 824 825 825 825 825 825 824 824 824
767 767 766 766 766 767 769 771 773 773 772 761 744 724 718 726 729 728 725 726 725 724 727 726 727 723 723 735 730 735 747 741 739 743 746 747 750 755 757 759 761 763 765 768 769 770 772 773 775 776 778 780 782 785 786 788 790 791 793 794 795 797 798 800 802 803 804 805 806 808 809 810 811 812 813 814 816 817 818 820 820 821 822 823 823 824 825 825 825 826 826 826 826 826 825 825 825
767 767 766 764 769 767 766 770 765 768 767 750 740 730 723 725 728 732 726 725 724 725 727 726 731 720 720 731 730 742 748 742 742 742 747 749 752 757 758 761 762 764 767 768 770 772 772 774 775 777 779 781 783 786 787 789 791 792 794 795 797 798 799 801 803 804 806 807 808 809 810 811 812 813 814 816 817 818 820 820 821 822 823 824 824 825 825 826 826 827 827 827 827 827 827 826 826
767 766 764 763 765 761 767 772 765 763 750 736 735 730 727 727 730 734 728 725 720 722 724 726 730 723 730 734 732 742 742 742 745 744 748 752 755 758 759 762 763 765 767 769 771 773 774 775 776 778 780 782 785 787 788 790 792 793 795 796 798 799 801 802 804 805 806 808 809 810 811 812 813 814 815 817 818 819 820 821 822 823 824 824 825 826 826 827 827 828 828 827 828 828 828 827 827
766 766 762 766 764 761 774 774 764 756 736 726 728 726 729 729 731 733 731 729 724 722 722 724 722 726 739 736 737 740 736 740 743 746 750 753 757 759 761 762 764 767 768 770 772 773 775 776 778 780 781 784 786 787 790 791 793 794 796 797 799 801 802 803 805 806 807 809 810 811 812 813 814 815 817 818 819 820 821 822 823 824 824 825 826 827 827 828 828 828 828 828 829 829 829 828 828
766 766 760 767 771 765 772 768 757 747 730 719 718 723 730 729 730 734 734 733 730 725 724 724 719 731 737 731 746 745 737 742 744 750 751 754 758 760 762 763 765 768 770 772 773 775 776 778 780 781 783 785 786 789 790 792 794 795 797 799 800 802 803 804 805 807 808 810 811 812 813 814 815 816 818 819 820 820 821 823 823 824 825 826 827 827 828 829 829 829 829 829 830 830 830 829 829
763 765 762 767 772 767 766 761 751 739 727 720 719 725 729 728 729 733 734 732 728 725 725 721 720 734 737 736 750 746 741 747 748 753 753 756 759 761 764 764 767 769 771 773 774 776 778 780 781 783 784 786 787 790 791 793 795 796 798 800 801 803 804 805 806 808 809 811 812 813 814 815 816 817 818 819 820 821 822 823 824 825 825 826 827 828 829 829 830 830 830 830 830 831 831 831 831
762 763 764 767 769 769 765 756 745 733 722 718 723 727 729 728 729 731 734 733 727 726 721 715 720 730 736 744 751 747 747 749 750 756 757 759 760 762 765 766 769 770 773 774 776 778 780 782 782 784 786 787 789 790 793 794 796 798 799 801 802 803 805 806 807 809 810 811 812 813 815 815 817 818 819 820 821 822 823 824 825 825 826 827 828 829 830 830 831 830 831 831 831 832 832 832 832
764 760 760 769 771 770 763 750 738 726 718 720 724 725 728 728 731 732 732 732 726 726 721 718 726 729 738 748 751 749 748 751 753 757 759 761 762 764 766 768 770 771 773 774 777 779 781 783 784 786 786 789 790 791 794 795 797 799 800 802 803 805 806 807 808 810 811 812 813 814 815 816 818 818 819 820 822 822 823 825 825 826 826 827 828 829 830 831 831 831 832 832 832 833 833 834 833
768 761 759 772 770 763 753 743 732 721 720 725 729 727 728 728 733 736 734 734 727 726 722 720 723 723 745 755 751 749 747 752 754 757 761 762 764 765 767 769 771 772 774 775 778 780 781 784 785 787 788 790 791 793 794 796 798 799 801 802 804 805 806 808 809 810 811 813 814 815 816 817 818 819 820 821 822 823 824 825 826 826 827 828 829 830 831 831 832 832 832 833 833 834 834 835 835
766 761 760 767 759 754 748 741 732 726 727 728 730 728 727 729 734 736 735 735 729 730 723 715 715 723 749 757 752 751 749 753 755 758 761 762 764 765 767 769 771 773 774 776 778 780 782 784 786 787 789 790 791 793 795 796 799 800 801 802 804 805 806 808 809 811 812 813 814 815 816 817 818 819 820 821 823 824 824 826 826 827 827 829 830 831 832 832 833 833 833 834 835 835 836 836 836
760 756 759 764 755 751 747 743 736 732 735 731 729 726 726 729 731 732 734 737 730 725 719 711 714 731 751 755 757 755 752 753 755 759 760 762 764 765 768 769 772 773 775 776 778 781 782 784 786 787 789 790 792 793 796 797 798 800 801 802 804 805 807 809 810 811 812 813 815 816 817 818 819 820 821 822 823 824 825 826 827 828 828 829 831 831 832 833 833 834 835 835 836 836 837 836 837
754 751 756 763 760 754 747 743 738 736 737 732 728 726 729 727 726 730 730 736 729 715 716 714 716 735 749 753 759 754 751 753 755 759 760 763 764 766 768 769 773 774 776 777 779 781 782 784 785 786 788 790 792 794 796 797 799 800 801 803 804 806 808 809 811 812 813 814 816 817 818 819 820 821 822 822 823 824 825 826 827 828 829 830 831 832 833 834 834 835 836 836 837 837 837 837 838
748 751 758 765 762 757 747 737 735 739 738 733 728 726 734 728 723 731 725 727 728 715 720 727 725 736 744 747 751 749 750 753 755 759 760 763 764 767 768 770 773 773 776 778 780 782 782 784 784 786 788 789 792 794 796 797 799 800 802 804 805 807 809 811 812 813 814 815 816 817 819 820 821 822 823 823 823 824 825 826 827 829 830 831 832 833 834 834 835 836 836 837 837 838 838 838 838
745 753 765 767 761 756 742 734 736 738 737 734 730 729 738 735 724 725 718 720 728 721 725 735 734 736 740 743 745 746 750 752 754 757 759 762 764 766 768 769 771 772 775 777 779 781 782 783 783 785 787 790 792 793 795 796 798 800 802 804 806 808 810 812 813 814 815 816 817 818 819 820 821 822 823 823 824 825 825 826 827 829 830 831 833 834 835 835 836 836 836 837 838 838 838 838 839
750 759 768 766 757 746 734 735 736 732 737 738 735 735 739 739 731 724 721 724 725 724 730 738 739 739 740 742 744 746 749 752 754 756 757 761 762 764 767 768 770 771 774 776 778 780 780 782 783 785 788 790 791 793 795 796 798 799 801 804 806 809 810 813 814 815 817 817 818 819 820 820 821 822 823 823 824 825 826 827 828 829 831 832 833 834 835 836 836 836 837 837 838 838 838 839 839
755 759 764 761 748 736 728 732 732 732 741 739 736 736 738 739 733 727 730 731 725 728 739 743 745 746 744 744 746 748 750 753 754 755 757 760 762 763 766 768 769 771 772 775 777 778 779 781 782 785 787 789 791 792 794 796 798 799 801 803 806 809 811 813 815 817 817 818 819 819 820 820 821 822 823 824 824 825 826 827 828 830 831 832 833 834 835 836 836 837 837 838 838 839 839 840 840
753 755 762 752 736 733 728 729 731 733 737 739 738 736 738 737 729 730 734 734 727 729 739 744 749 750 747 748 748 749 751 753 754 755 758 760 761 763 765 766 768 770 771 773 775 777 778 780 782 784 786 788 790 792 793 795 796 798 800 803 806 808 811 813 815 817 817 818 819 819 820 821 822 822 823 824 825 826 827 828 829 830 831 832 833 834 835 836 836 837 837 838 838 839 840 841 842
749 751 757 743 730 736 732 729 733 734 735 739 740 739 741 733 728 733 735 738 733 728 732 737 744 746 746 749 748 749 751 752 755 756 758 759 761 762 764 765 768 769 770 772 773 775 777 778 781 783 785 787 790 791 792 794 795 797 799 802 805 807 809 811 814 816 816 817 818 819 820 821 822 823 824 824 825 826 827 828 829 830 831 832 833 834 835 836 836 837 837 838 839 839 841 842 843
747 746 746 737 733 739 733 730 735 736 737 740 741 741 739 732 733 735 735 740 735 729 732 732 737 740 742 745 747 749 751 753 754 756 758 759 760 762 764 765 767 768 769 771 772 774 775 777 780 783 785 787 789 791 792 794 796 798 799 801 803 804 806 809 812 814 816 817 818 819 819 821 822 823 824 825 826 826 827 828 829 830 831 832 833 834 835 836 837 837 838 838 839 840 841 842 843
749 746 739 736 735 738 733 731 735 736 741 743 741 738 734 737 740 734 733 735 727 724 728 731 735 738 740 743 746 750 752 754 755 758 760 760 761 762 763 764 765 767 768 770 771 773 775 777 781 782 785 787 789 792 793 795 798 800 800 801 801 802 805 808 811 814 816 817 817 818 819 821 822 823 824 824 826 826 827 828 829 830 831 832 832 833 835 836 837 837 838 839 840 841 842 843 844
747 748 740 735 732 734 732 731 735 737 741 741 737 737 738 744 743 733 732 729 721 720 724 729 735 737 740 744 747 750 752 754 758 763 763 761 762 762 762 763 765 766 768 769 771 774 777 780 781 782 785 787 790 793 795 797 799 801 801 801 801 801 803 807 810 813 816 816 817 818 819 820 821 823 823 824 825 827 828 828 830 831 831 832 832 833 835 835 837 837 838 839 840 841 842 843 844
745 746 740 735 732 732 731 732 735 737 738 737 737 741 741 740 738 734 733 728 719 718 724 729 733 738 742 745 748 750 752 754 758 761 761 762 762 761 762 763 764 766 767 769 772 776 779 780 781 783 785 787 791 794 797 799 800 801 802 803 802 802 803 805 809 813 815 816 816 817 818 820 821 823 823 824 825 827 828 829 830 832 832 833 833 834 835 835 836 837 838 839 840 840 841 843 843
741 740 738 736 735 732 731 734 735 736 736 735 739 743 739 733 734 737 732 726 719 717 725 729 732 739 741 745 749 750 752 754 755 757 758 760 760 760 761 762 764 765 766 769 773 777 777 779 783 785 786 789 793 796 798 799 799 799 801 803 804 804 804 804 808 812 814 815 816 817 818 820 821 823 824 824 825 827 828 829 830 832 833 833 833 834 834 835 836 837 838 838 839 840 841 842 843
734 736 736 735 735 731 731 734 733 735 734 735 740 742 737 730 735 742 731 720 717 719 726 727 731 738 740 745 747 749 751 751 753 755 756 757 758 759 760 761 763 764 766 769 772 775 777 781 785 787 788 791 793 794 796 798 798 799 801 803 805 806 806 806 808 812 814 815 816 817 818 819 821 822 824 825 826 827 828 829 830 832 832 833 833 834 835 836 836 837 837 837 838 839 841 842 843
733 736 738 736 736 734 732 734 733 735 736 734 736 740 737 732 737 738 727 717 716 722 727 728 732 739 742 745 747 748 750 750 751 752 754 755 756 758 759 760 762 764 766 769 772 775 778 781 783 786 788 789 790 791 794 796 797 798 800 802 804 806 808 809 810 811 813 814 815 817 818 819 820 821 823 825 826 827 828 829 830 831 832 832 833 834 835 836 836 837 837 838 839 839 840 842 844
734 736 744 743 738 738 735 733 733 735 738 730 732 745 744 738 737 730 721 716 714 721 728 731 737 743 746 747 748 749 749 749 750 750 751 753 754 756 757 759 761 763 766 769 772 775 777 777 779 783 786 788 788 790 793 794 795 797 799 801 803 805 807 809 810 811 812 814 816 817 818 819 820 821 823 825 826 828 829 830 831 831 832 832 833 834 835 835 836 837 838 839 840 840 840 842 845
738 737 745 747 745 742 731 728 730 732 734 725 734 757 752 736 730 724 718 714 714 722 729 735 741 744 746 747 749 751 750 749 747 749 751 752 754 755 756 758 760 763 766 769 772 773 775 775 777 781 784 786 787 789 791 792 794 796 798 800 802 803 806 808 809 811 813 814 816 818 818 819 819 820 823 825 826 828 829 830 831 831 832 832 833 834 835 836 836 836 837 839 840 841 842 844 846
741 743 744 747 753 744 723 720 728 733 730 722 738 761 752 731 722 718 715 712 715 724 727 734 740 742 744 746 749 751 750 749 749 754 754 752 753 754 755 757 759 762 764 768 771 773 775 775 777 781 783 785 786 788 790 792 794 795 797 800 801 802 805 808 809 811 813 814 816 817 818 817 818 820 823 825 826 827 828 829 830 831 831 832 833 834 835 836 836 836 837 839 840 841 843 844 845
742 751 752 746 749 740 718 714 724 732 728 724 741 758 748 730 715 708 709 709 714 724 726 730 736 739 742 745 747 748 749 749 755 764 759 752 753 753 754 756 758 761 764 767 770 772 774 776 778 780 782 785 786 788 790 792 794 795 798 800 800 801 804 807 809 811 812 813 815 816 817 817 819 822 824 824 825 826 827 829 830 830 831 832 833 834 835 835 835 836 837 838 840 841 843 844 846
741 749 755 745 741 737 723 718 720 725 728 730 740 750 743 728 710 701 703 708 715 725 726 726 733 736 738 743 745 747 751 750 758 768 761 752 753 752 753 755 757 760 763 766 769 771 774 776 778 779 781 785 787 789 790 792 793 795 797 800 799 799 802 806 809 811 812 812 814 816 817 819 821 822 823 823 824 825 826 828 829 830 831 832 833 834 835 835 835 836 837 838 839 841 843 844 846
744 744 748 742 735 733 728 725 721 718 727 734 736 742 739 726 713 707 708 713 720 725 726 726 730 733 733 739 744 748 752 753 760 767 759 752 753 752 752 754 756 760 762 764 767 770 773 776 778 779 782 785 788 790 791 792 793 794 797 800 800 800 803 806 808 810 812 813 815 816 817 819 821 821 821 822 823 824 826 827 828 829 831 832 833 834 835 835 835 836 837 838 839 841 843 844 846
744 741 743 742 735 731 727 725 723 719 728 736 736 740 737 726 717 713 713 716 722 724 724 724 725 731 733 735 741 745 748 752 757 759 755 752 752 751 752 753 756 759 761 764 767 770 773 775 777 780 783 785 788 790 792 793 794 795 798 800 801 804 806 808 810 810 813 817 819 819 818 819 820 819 819 821 822 824 825 827 828 829 830 831 833 834 835 835 835 836 837 838 840 841 843 844 846
734 730 732 735 733 732 724 719 720 720 731 738 736 737 735 728 722 716 713 714 721 723 722 722 722 730 736 736 740 742 744 748 750 750 750 750 750 749 751 753 755 758 760 763 766 769 772 775 777 780 782 785 787 790 791 793 795 796 797 799 801 804 807 810 813 814 815 820 821 820 820 820 820 819 818 821 823 824 825 826 827 829 830 831 832 833 834 834 835 836 837 838 840 841 843 844 846
729 729 731 728 728 729 720 718 719 716 729 737 733 735 734 730 725 718 714 714 717 720 722 723 721 724 730 735 739 740 741 743 747 752 750 748 749 749 750 752 755 758 760 762 765 769 771 774 777 779 781 784 786 789 791 793 794 795 795 798 800 803 806 809 811 813 816 820 820 820 819 820 821 821 819 821 823 824 824 826 827 829 830 830 832 832 833 834 834 836 837 838 840 841 843 845 847
732 738 739 734 729 726 717 717 719 717 731 737 732 737 736 730 727 720 717 718 719 716 719 724 722 719 721 727 732 735 738 742 753 761 754 747 748 749 750 752 754 756 758 761 765 768 771 773 776 778 781 783 786 788 790 792 794 794 795 798 800 802 805 806 807 810 814 818 819 818 818 818 820 822 821 820 822 823 823 825 826 828 830 830 831 832 833 833 834 835 837 838 840 842 843 845 846
737 742 745 743 734 729 723 717 716 719 732 738 735 739 737 728 724 720 718 719 719 714 713 718 721 719 719 722 723 725 733 742 751 758 752 745 744 746 749 751 754 757 758 761 765 768 771 773 776 779 781 784 786 788 790 792 794 795 796 798 800 801 803 804 806 809 812 815 817 817 817 816 818 822 822 820 821 822 823 824 826 827 829 830 830 831 832 833 834 835 837 838 840 842 843 845 846
742 745 749 748 736 736 738 726 716 715 723 733 738 741 738 729 723 719 717 717 716 714 711 711 715 718 717 718 719 718 725 736 741 743 743 741 742 744 746 750 754 757 759 761 765 769 771 773 776 779 782 785 787 789 791 793 794 795 796 798 799 801 803 804 806 808 810 812 814 814 815 815 817 819 820 820 820 821 822 823 825 827 828 829 830 831 831 833 834 835 837 838 840 842 844 845 847
745 744 747 746 736 736 737 728 719 716 720 727 739 750 745 734 732 727 718 716 716 714 712 709 710 713 713 713 715 715 717 726 730 732 735 736 739 741 744 749 753 755 757 760 766 769 771 773 775 778 781 784 787 789 792 794 795 796 797 798 800 801 804 805 805 807 809 810 811 812 813 814 816 818 819 820 820 821 822 823 824 826 827 828 830 830 831 833 834 836 837 839 840 841 843 844 846
748 741 740 740 736 734 732 728 727 732 735 727 736 762 757 734 731 729 719 717 716 713 713 712 709 709 712 713 714 714 713 717 721 725 729 732 734 739 743 747 749 750 753 760 769 772 771 772 772 774 777 780 783 786 789 793 795 797 799 800 800 801 804 804 804 805 807 809 810 811 813 814 815 817 819 819 819 820 821 822 823 825 826 827 829 830 831 833 834 836 837 838 840 841 842 844 845
752 738 730 733 735 735 734 733 736 743 742 727 726 752 758 737 726 722 716 714 711 708 710 711 709 708 710 711 711 711 711 712 717 721 724 728 731 735 740 743 744 747 751 761 772 774 771 769 768 770 772 774 778 781 784 787 790 793 798 800 801 803 804 804 804 805 807 808 810 812 813 814 815 817 818 819 819 820 821 822 823 824 825 826 828 829 830 832 834 836 837 838 839 840 841 842 844
749 730 723 727 729 733 735 735 741 741 739 734 727 736 753 749 732 720 715 714 709 708 710 708 708 709 709 711 710 710 712 711 714 720 722 724 727 730 735 738 741 748 754 763 773 774 771 768 767 767 768 770 772 775 778 779 780 784 791 796 799 803 805 805 805 805 806 808 810 811 812 814 815 816 817 818 818 819 820 821 822 823 824 825 827 828 829 831 833 835 836 837 838 839 840 841 842
738 724 722 722 724 732 733 735 741 737 742 751 738 732 752 752 732 719 718 718 715 712 712 711 710 712 714 716 715 714 715 715 716 721 724 725 726 729 732 736 742 750 755 760 766 769 769 768 767 766 766 767 768 769 771 774 778 781 784 788 792 799 804 805 805 805 806 807 809 810 812 814 815 816 817 817 818 818 819 820 822 822 823 824 826 827 829 830 832 834 835 836 837 838 839 840 842
728 723 724 723 728 734 735 739 739 738 751 759 743 735 751 751 730 721 722 723 721 714 714 718 717 718 721 720 719 717 717 718 720 724 727 729 729 731 735 739 745 751 753 755 758 760 765 767 766 765 764 765 765 766 767 770 777 781 783 785 787 792 799 803 805 805 805 806 808 810 812 813 814 815 816 817 817 818 819 820 821 822 823 824 825 827 828 829 831 833 834 835 836 837 839 839 841
724 726 728 731 735 736 740 740 739 752 762 753 739 732 744 753 736 723 726 727 724 720 722 727 723 723 724 723 722 720 719 722 724 727 729 731 733 736 741 745 749 752 754 755 756 759 763 765 763 762 761 761 763 765 767 767 771 777 781 785 786 788 793 799 803 804 804 805 807 809 811 812 813 814 815 816 817 818 819 820 821 822 823 824 825 826 827 829 830 831 833 835 836 838 839 840 842
727 731 736 744 746 744 748 746 747 768 770 748 734 726 736 754 741 722 721 721 723 727 731 734 731 729 728 725 725 723 723 727 729 732 733 734 738 743 748 753 757 758 757 757 757 759 763 763 761 760 759 759 760 764 766 764 766 772 778 783 786 787 789 795 800 802 803 804 806 809 810 811 812 813 814 815 816 818 819 819 820 821 822 823 825 826 827 828 829 830 832 834 835 837 839 840 842
730 734 741 757 761 759 763 761 759 766 760 740 729 727 736 745 735 723 722 722 727 731 733 734 735 734 734 731 730 729 729 732 734 735 737 739 742 746 750 756 760 760 759 758 758 761 764 763 759 758 758 757 758 762 764 763 763 768 773 778 783 785 787 791 796 800 802 804 807 808 809 810 811 813 814 815 816 817 818 819 820 821 822 823 824 825 827 828 829 830 831 833 835 836 838 840 841
735 737 743 759 767 771 773 768 763 761 753 735 725 735 743 740 736 732 728 729 731 733 736 738 737 737 739 737 736 736 735 735 738 738 739 742 746 748 751 754 756 757 761 762 763 765 765 762 758 757 756 755 756 759 762 764 764 766 771 775 780 784 786 789 793 798 802 804 806 807 808 809 811 813 813 814 816 817 818 819 820 821 821 822 824 825 826 827 829 830 831 832 834 835 837 839 840
730 729 734 746 752 761 766 763 765 766 760 746 738 746 747 746 747 737 730 734 735 737 740 741 741 740 740 742 742 743 741 738 740 741 740 741 744 747 751 751 749 752 761 766 766 765 762 759 757 756 755 755 755 756 761 765 766 767 771 775 779 784 787 789 792 796 800 802 804 806 808 809 811 813 813 814 815 816 817 819 820 820 821 822 823 824 826 827 828 830 831 832 833 835 837 838 840
722 719 731 741 736 739 748 750 752 757 764 757 747 745 738 738 742 732 732 742 740 742 745 744 749 749 748 752 750 750 748 743 743 746 749 749 747 746 749 750 748 751 759 765 766 762 759 757 756 756 755 755 754 755 759 765 767 768 771 774 778 783 786 788 790 795 799 801 803 805 807 810 812 812 813 813 814 815 817 818 819 820 821 822 823 824 825 827 828 829 830 831 832 834 836 837 839
724 723 733 730 718 722 741 750 744 749 768 761 746 746 741 740 746 741 742 749 744 746 750 752 757 758 759 762 761 761 759 752 749 750 755 758 755 752 751 752 753 755 758 762 763 760 756 755 756 756 756 755 754 755 759 763 766 768 771 773 777 780 784 787 789 793 797 800 803 805 808 810 811 812 812 813 814 815 816 818 819 820 821 822 823 824 825 826 827 829 830 831 832 833 834 836 838
727 733 728 719 716 719 732 751 754 758 768 756 741 746 746 749 761 759 753 754 754 753 754 757 759 761 764 766 767 768 765 758 753 750 751 752 753 754 753 754 756 757 758 760 760 757 753 752 751 751 751 751 753 755 758 762 765 767 770 773 775 778 782 785 788 791 796 799 802 805 808 809 810 811 811 812 813 815 816 817 818 819 820 821 822 823 825 826 827 828 829 830 831 832 834 835 837
719 724 717 721 739 740 736 750 762 765 767 759 744 740 749 761 769 769 764 762 763 762 760 760 761 762 763 764 765 763 760 758 754 750 750 749 748 750 749 749 751 753 756 757 757 755 750 748 747 747 748 749 752 756 759 762 765 767 770 772 774 776 780 784 787 790 794 798 801 804 807 807 808 809 810 812 813 814 815 817 818 819 820 821 822 823 824 825 826 828 829 830 831 832 833 835 836
714 716 714 719 733 739 739 743 750 756 762 762 750 745 764 778 770 767 769 764 763 766 765 764 764 764 763 763 764 761 759 758 755 753 753 751 750 749 746 746 745 747 749 751 751 752 750 747 746 749 751 752 756 759 762 765 766 769 771 773 774 775 778 782 786 789 792 796 799 802 804 805 807 808 810 811 813 814 815 816 817 819 819 821 822 823 824 825 826 827 828 830 831 832 834 835 836
721 726 727 725 723 727 734 736 737 745 754 760 756 758 775 781 771 770 771 765 764 765 767 770 769 767 766 765 765 763 762 761 760 759 757 754 753 751 749 748 746 746 746 746 747 749 751 751 751 754 756 757 761 764 767 769 769 771 772 773 774 775 776 780 784 787 790 794 797 800 802 804 805 807 809 811 813 813 815 816 817 818 819 821 822 823 824 824 825 827 828 830 831 832 834 835 836
722 726 726 727 726 729 741 745 737 734 742 750 755 768 783 782 776 778 775 770 769 767 768 772 772 771 771 768 766 765 765 765 764 763 760 758 756 754 754 752 751 751 750 749 749 751 754 756 757 759 761 761 764 767 768 770 772 774 773 774 775 775 776 779 782 785 788 792 795 798 801 803 804 807 809 811 812 813 814 815 817 818 819 820 821 822 823 824 825 827 828 830 831 832 833 835 836